Regional Weather Roundup
Issued by NWS

Home | Current Version | Previous Version | Text Only | Print | Product List | Glossary On
Versions: 1 2 3 4 5 6 7 8 9 10 11 12 13 14 15 16 17 18 19 20 21 22 23 24 25 26 27 28 29 30 31 32 33 34 35 36 37 38 39 40 41 42 43 44 45 46 47 48 49 50
000
ASUS43 KTOP 252308
RWRKS

WEATHER ROUNDUP FOR KANSAS
NATIONAL WEATHER SERVICE GOODLAND KS
500 PM CST SUN JAN 25 2015

NOTE:  "FAIR" INDICATES FEW OR NO CLOUDS BELOW 12,000 FEET WITH NO
SIGNIFICANT WEATHER AND/OR OBSTRUCTIONS TO VISIBILITY.

KSZ001>006-013>018-027>032-041>047-260000-
NORTHWEST KANSAS

CITY           SKY/WX    TMP DP  RH WIND       PRES   REMARKS
GOODLAND       CLEAR     51  31  46 NW8       30.09S
HAYS           CLEAR     48  25  40 N10       30.10R
HILL CITY      CLEAR     51  23  33 N12       30.10R
RUSSELL        CLEAR     49  25  39 N20       30.08R
$$

KSZ061>065-074>080-084>089-260000-
SOUTHWEST KANSAS

CITY           SKY/WX    TMP DP  RH WIND       PRES   REMARKS
DODGE CITY     CLEAR     53  18  25 N16G25    30.10R
ELKHART          N/A     58  30  34 NW9         N/A
GARDEN CITY    CLEAR     55  21  26 N15       30.09R
GREAT BEND     CLEAR     50  25  37 N20       30.10R
LIBERAL        CLEAR     59  25  27 N20       30.13R
PRATT          CLEAR     50  23  34 N23       30.10R
$$

KSZ066>073-081>083-090>101-260000-
SOUTHEAST KANSAS

CITY           SKY/WX    TMP DP  RH WIND       PRES   REMARKS
CHANUTE        CLOUDY    42  33  70 N14       30.04R
COFFEYVILLE    CLOUDY    46  31  55 N20G35    30.04R
HUTCHINSON     CLEAR     50  27  40 N18G26    30.08R
MEDICINE LODGE   N/A     52  25  35 N21G30    30.08R
NEWTON         MOCLDY    45  27  49 N18G28    30.09R
PARSONS        CLOUDY    45  32  60 N14G30    30.04R
WICHITA INTL   PTCLDY    50  29  44 N18G25    30.07R
WICHITA JABRA  PTCLDY    47  30  51 N21G31    30.06R
WICHITA MCCONL PTCLDY    48  31  50 N23G29    30.07R
WINFIELD       MOCLDY    50  30  46 N16       30.07R
$$

KSZ007>012-019>026-033>040-048>060-102>105-260000-
NORTHEAST KANSAS

CITY           SKY/WX    TMP DP  RH WIND       PRES   REMARKS
CONCORDIA      CLOUDY    43  31  62 N14       30.09R
EMPORIA        CLOUDY    42  30  62 NW21      30.06R
LAWRENCE       CLOUDY    39  32  76 N21       30.05R WCI  29
MANHATTAN      CLOUDY    43  31  62 N9        30.09R
MARYSVILLE     CLOUDY    37  32  81 N9        30.08S
OLATHE IND     CLOUDY    38  32  79 N16       30.02R WCI  29
OLATHE EXE     CLOUDY    38  32  79 N17G24    30.00R WCI  28
SALINA         CLEAR     47  30  51 N21       30.10R
TOPEKA BILLARD CLOUDY    40  31  70 N12       30.07R WCI  33
TOPEKA FORBES  CLOUDY    41  31  67 N16G24    30.06R
$$


USA.gov is the U.S. government's official web portal to all federal, state and local government web resources and services.